Location: Maddington
(51.2000°N, 1.9167°W)
Time: 22:28:11
(UTC+00:00)

Meteor 2-5 Rocket - Pass Details

Date: 18 September 2020
Orbit: 833 x 912 km, 81.2° (Epoch: 30 October)

Event Time Altitude Azimuth Distance (km) Brightness Sun altitude
Rises 20:19:43 0° 347° (NNW) 3,412 7.5 -19.6°
Reaches altitude 10° 20:22:08 10° 349° (N) 2,481 6.7 -19.9°
Maximum altitude 20:27:47 79° 76° (ENE) 880 3.6 -20.7°
Enters shadow 20:30:20 35° 159° (SSE) 1,376 4.4 -21.1°
